This demonstration page uses our WeatherBlox Daily Observations layout. Learn more.

Left ArrowRight Arrow

34.02893, -84.19858

Hourly Observations for June 5, 2022

Temp ( °F °C ) Dew Point ( °F °C ) Humidity (%) Winds ( mph kmh ) Pressure ( in mb ) Visibility ( mi km ) Precip ( " mm )
12:53 am 00:53 Clear 69 20.6 57 13.9 66 66 Calm 29.82 1010 10 16 0.00 0.00
1:53 am 01:53 Clear 69 20.6 56 13.3 63 63 Calm 29.81 1010 10 16 0.00 0.00
2:53 am 02:53 Mostly Cloudy 69 20.6 56 13.3 63 63 Calm 29.80 1009 10 16 0.00 0.00
3:53 am 03:53 Mostly Clear 67 19.4 56 13.3 68 68 Calm 29.81 1010 10 16 0.00 0.00
4:53 am 04:53 Clear 66 18.9 56 13.3 70 70 Calm 29.82 1010 10 16 0.00 0.00
5:53 am 05:53 Mostly Clear 65 18.3 56 13.3 73 73 Calm 29.83 1010 10 16 0.00 0.00
6:53 am 06:53 Sunny 64 17.8 56 13.3 75 75 Calm 29.85 1011 10 16 0.00 0.00
7:53 am 07:53 Sunny 67 19.4 57 13.9 71 71 Calm 29.87 1011 10 16 0.00 0.00
8:53 am 08:53 Sunny 70 21.1 58 14.4 66 66 VRB 6 9 29.88 1012 10 16 0.00 0.00
9:53 am 09:53 Sunny 74 23.3 60 15.6 62 62 VRB 5 7 29.88 1012 10 16 0.00 0.00
10:53 am 10:53 Sunny 77 25 58 14.4 52 52 VRB 6 9 29.88 1012 10 16 0.00 0.00
11:53 am 11:53 Sunny 80 26.7 58 14.4 47 47 undefined N/A 29.88 1012 10 16 0.00 0.00
12:53 pm 12:53 Partly Cloudy 81 27.2 57 13.9 44 44 VRB 5 7 29.88 1012 10 16 0.00 0.00
1:53 pm 13:53 Mostly Cloudy 84 28.9 57 13.9 40 40 Calm 29.85 1011 10 16 0.00 0.00
2:53 pm 14:53 Mostly Sunny 84 28.9 57 13.9 40 40 VRB 3 6 29.84 1011 10 16 0.00 0.00
3:53 pm 15:53 Partly Cloudy 84 28.9 58 14.4 41 41 VRB 5 7 29.84 1010 10 16 0.00 0.00
4:53 pm 16:53 Partly Cloudy 84 28.9 57 13.9 40 40 undefined N/A 29.83 1010 10 16 0.00 0.00
4:55 pm 16:55 Partly Cloudy 85 29.4 58 14.4 40 40 NE 8 13 29.81 1010 10 16 0.00 0.00
5:53 pm 17:53 Mostly Sunny 83 28.3 58 14.4 43 43 NE 8 13 29.82 1010 10 16 0.00 0.00
6:53 pm 18:53 Sunny 82 27.8 57 13.9 42 42 Calm 29.82 1010 10 16 0.00 0.00
7:53 pm 19:53 Sunny 80 26.7 58 14.4 47 47 undefined N/A 29.85 1011 10 16 0.00 0.00
8:53 pm 20:53 Clear 77 25 58 14.4 52 52 Calm 29.86 1011 10 16 0.00 0.00
9:53 pm 21:53 Clear 75 23.9 58 14.4 55 55 E 3 6 29.86 1011 10 16 0.00 0.00
10:53 pm 22:53 Clear 73 22.8 58 14.4 59 59 Calm 29.88 1012 10 16 0.00 0.00
11:53 pm 23:53 Clear 71 21.7 58 14.4 63 63 Calm 29.89 1012 10 16 0.00 0.00

Powered by AerisWeather